Regional Weather Roundup
Issued by NWS

Home | Current Version | Previous Version | Text Only | Print | Product List | Glossary On
Versions: 1 2 3 4 5 6 7 8 9 10 11 12 13 14 15 16 17 18 19 20 21 22 23 24 25 26 27 28 29 30 31 32 33 34 35 36 37 38 39 40 41 42 43 44 45 46 47 48 49 50
000
ASUS46 KSTO 220515
RWRCA

NORTHERN AND CENTRAL CA REGIONAL WEATHER ROUNDUP
NATIONAL WEATHER SERVICE SACRAMENTO CA
1000 PM PDT MON AUG 21 2017

NOTE: FAIR INDICATES FEW OR NO CLOUDS BELOW 12,000 FEET WITH NO
SIGNIFICANT WEATHER AND/OR OBSTRUCTIONS TO VISIBILITY.

CAZ001-003-220600-
NORTHWEST AREA

CITY           SKY/WX    TMP DP  RH WIND       PRES   REMARKS
CRESCENT CITY  CLOUDY    56  54  93 S7        30.06R
UKIAH          CLEAR     67  57  70 S5        30.00S
$$

CAZ006-505>513-220600-
BAY AREA

CITY           SKY/WX    TMP DP  RH WIND       PRES   REMARKS
SANTA ROSA     PTCLDY    60  56  86 SE6       30.00F
SAN RAFAEL     N/A       62  MM  MM MISG
NAPA           CLOUDY    64  56  75 W17       29.99R
CONCORD        MOCLDY    66  57  72 SW7       29.99R
OAKLAND CITY   N/A      MM  MM  MM MISG
OAKLAND        MOCLDY    63  58  83 W12       30.02R
SAN FRAN CITY  N/A       62  MM  80 MISG
SAN FRAN ARPT  MOCLDY    64  55  72 W9        30.02R
LIVERMORE      CLEAR     63  56  78 W13       30.00R
HAYWARD        PTCLDY    63  54  72 NW9       30.01R
REDWOOD CITY   N/A       66  MM  76 MISG
MOFFETT ARPT   PTCLDY    65  60  84 N8        30.02R
SAN JOSE ARPT  PTCLDY    66  59  78 NW6       30.01R
$$
CAZ034-037-514>518-220600-
CENTRAL COAST

CITY           SKY/WX    TMP DP  RH WIND       PRES   REMARKS
WATSONVILLE    CLEAR     61  57  87 CALM      30.03S
SALINAS        CLEAR     63  57  81 W6        30.02R
MONTEREY       CLEAR     61  57  87 E3        30.04R
SAN LUIS OBISP CLEAR     64  57  78 NW7       30.01R
SANTA MARIA    CLEAR     62  59  90 W3        30.01S
$$
CAZ015-016-220600-
NORTHERN SACRAMENTO VALLEY

CITY           SKY/WX    TMP DP  RH WIND       PRES   REMARKS
REDDING        CLEAR     80  61  52 E3        29.96R
RED BLUFF      CLEAR     79  63  57 NE5       29.95S
OROVILLE       PTCLDY    79  62  56 S5        29.94R
$$
CAZ016>018-220600-
SOUTHERN SACRAMENTO VALLEY

CITY           SKY/WX    TMP DP  RH WIND       PRES   REMARKS
AUBURN         PTCLDY    72  72 100 E5        30.00S
BEALE AFB      CLEAR     85  61  43 CALM      29.92R
LINCOLN        FAIR      77  54  44 SE6       29.92S
MARYSVILLE     PTCLDY    75  60  59 MISG      29.94R
SAC INTL ARPT  MOCLDY    71  59  65 SE10      29.93R
MATHER AIRPORT MOCLDY    68  57  68 SE5       29.95R
DOWNTOWN SAC   N/A       69  MM  MM MISG
SAC EXEC ARPT  PTCLDY    68  59  73 S9        29.94R
VACAVILLE      MOCLDY    73  57  57 S5        29.95R
TRAVIS AFB     MOCLDY    65  56  72 SW20G31   29.93R
$$
CAZ019>021-220600-
SAN JOAQUIN VALLEY

CITY           SKY/WX    TMP DP  RH WIND       PRES   REMARKS
STOCKTON       CLEAR     68  58  70 NW13      29.95R
MODESTO        CLEAR     73  58  59 N12       29.94R
MERCED         CLEAR     73  59  61 W6        29.93R
LEMOORE        PTCLDY    77  60  55 N7        29.94R
FRESNO         PTCLDY    80  57  45 NW12      29.94R
HANFORD        PTCLDY    80  61  52 NW8       29.94R
PORTERVILLE      N/A     80  63  55 CALM      29.94R
BAKERSFIELD    CLEAR     85  61  44 N5        29.93R
$$
CAZ011-012-071-220600-
NORTHERN MOUNTAINS

CITY           SKY/WX    TMP DP  RH WIND       PRES   REMARKS
YREKA          CLOUDY    77  44  30 N9        30.03R HAZE
MOUNT SHASTA   CLEAR     72  56  57 VRB3      30.13R
ALTURAS        PTCLDY    77  39  25 W12       30.11R
$$
CAZ011-012-071-220600-
SIERRA NEVADA MTNS

CITY           SKY/WX    TMP DP  RH WIND       PRES   REMARKS
BLUE CANYON    PTCLDY    68  49  50 NE3       30.25S
TRUCKEE        MOCLDY    55  55 100 CALM      30.28F
TAHOE VLY ARPT MOCLDY    55  51  86 CALM      30.31R
MAMMOTH LAKES  FAIR      56  39  52 N3        30.36R
$$



USA.gov is the U.S. government's official web portal to all federal, state and local government web resources and services.